"Time","Temp","Dewpoint","Humidity","Pressure","Direction","Speed","Gust","Precip","PrecipRate"
"00:04:57","76.7","67.4","73","29.91","320","2.8","8.1","0.00","0.00"
"00:09:59","76.6","67.3","73","29.91","298","2.1","6.9","0.00","0.00"
"00:14:58","76.5","67.5","73.7","29.91","337","3.8","13.2","0.00","0.00"
"00:19:58","76.5","67.4","73.5","29.90","311","5.1","16.1","0.00","0.00"
"00:24:57","76.5","67.6","73.9","29.90","285","4.4","13.2","0.00","0.00"
"00:29:58","76.5","67.6","74","29.90","336","4.4","14.4","0.00","0.00"
"00:34:58","76.6","67.5","73.6","29.90","334","3.5","15","0.00","0.00"
"00:39:59","76.6","67.6","73.7","29.90","291","3.2","10.4","0.00","0.00"
"00:44:59","76.6","67.3","73","29.90","10","2","7.2","0.00","0.00"
"00:49:59","76.6","67.3","73","29.90","316","1.9","7.2","0.00","0.00"
"00:54:59","76.6","67.3","73","29.90","290","2.1","6.9","0.00","0.00"
"00:59:55","76.5","67.5","73.9","29.90","269","2.6","7.2","0.00","0.00"
"01:04:56","76.4","67.5","74","29.90","307","1.2","6.9","0.00","0.00"
"01:09:59","76.3","67.5","74.2","29.90","311","1.2","4.8","0.00","0.00"
"01:14:56","76.3","67.6","74.7","29.90","294","1.1","3.6","0.00","0.00"
"01:19:57","76.2","67.7","75","29.90","288","0.8","4.8","0.00","0.00"
"01:24:56","76.2","67.7","75","29.90","282","0.4","2.4","0.00","0.00"
"01:29:57","76.1","67.6","75","29.90","282","0.2","2.4","0.00","0.00"
"01:34:57","76","67.5","75","29.90","282","0.8","3.6","0.00","0.00"
"01:39:58","75.9","67.5","75.2","29.90","283","0.4","3.6","0.00","0.00"
"01:44:59","75.8","67.7","76","29.90","283","0.2","1.2","0.00","0.00"
"01:49:59","75.6","67.6","76.4","29.90","283","0.3","1.2","0.00","0.00"
"01:54:59","75.3","67.6","77","29.90","283","0.6","3.6","0.00","0.00"
"01:59:56","75.1","67.5","77.1","29.90","304","0.4","7.2","0.00","0.00"
"02:04:56","75","67.6","77.8","29.90","339","1.7","7.2","0.00","0.00"
"02:09:56","75","67.7","78","29.90","340","2.2","4.8","0.00","0.00"
"02:14:57","75","67.7","78","29.90","333","1.2","4.6","0.00","0.00"
"02:19:58","75","67.7","78","29.90","350","0.7","6","0.00","0.00"
"02:24:57","75","67.7","78","29.90","335","2.1","8.4","0.00","0.00"
"02:29:58","75.1","67.8","78","29.90","341","3.7","10.8","0.00","0.00"
"02:34:57","75.1","67.8","78","29.89","322","2.2","10.8","0.00","0.00"
"02:39:59","75.1","67.8","78","29.89","344","2.3","8.4","0.00","0.00"
"02:44:59","75.1","67.8","78","29.89","339","1.6","4.8","0.00","0.00"
"02:49:59","74.9","67.6","78.1","29.89","338","1.4","7.2","0.00","0.00"
"02:54:56","74.7","67.8","79","29.89","5","2.7","8.4","0.00","0.00"
"02:59:59","74.5","67.6","79","29.89","13","3.4","10.8","0.00","0.00"
"03:04:58","74.4","67.5","79","29.88","344","2.7","12","0.00","0.00"
"03:09:58","74.4","67.5","79","29.88","353","1.4","6","0.00","0.00"
"03:14:59","74.3","67.4","79","29.89","350","0.8","4.8","0.00","0.00"
"03:19:56","74.1","67.2","79","29.89","348","0.8","3.6","0.00","0.00"
"03:24:56","74","67.3","79.6","29.89","344","0.1","3.5","0.00","0.00"
"03:29:57","73.8","67.2","80","29.89","344","0.8","2.4","0.00","0.00"
"03:34:57","73.6","67","80","29.89","344","0.3","2.4","0.00","0.00"
"03:39:58","73.5","67","80.2","29.89","344","0","1.2","0.00","0.00"
"03:44:59","73.3","67.1","81","29.90","344","0","1.2","0.00","0.00"
"03:49:56","73","67","81.5","29.90","343","0.4","3.6","0.00","0.00"
"03:54:56","72.7","66.9","82","29.90","343","1.1","3.6","0.00","0.00"
"03:59:59","72.5","66.8","82.2","29.90","344","1.6","6","0.00","0.00"
"04:04:57","72.4","66.8","82.5","29.90","335","1.7","4.8","0.00","0.00"
"04:09:57","72.5","66.8","82.3","29.90","340","0.9","4.6","0.00","0.00"
"04:14:59","72.5","66.8","82.4","29.91","340","0.8","3.6","0.00","0.00"
"04:19:56","72.4","66.9","83","29.91","342","1.4","4.8","0.00","0.00"
"04:24:59","72.2","66.6","82.5","29.91","344","1","3.6","0.00","0.00"
"04:29:57","72.1","66.5","82.7","29.92","348","1","6","0.00","0.00"
"04:34:59","72","66.4","82.5","29.92","349","1.1","5.8","0.00","0.00"
"04:39:57","71.9","66.5","83","29.92","347","1.5","6","0.00","0.00"
"04:44:58","71.7","66.3","83","29.92","351","1.8","7.2","0.00","0.00"
"04:49:58","71.7","66.3","83","29.92","354","2.9","7.2","0.00","0.00"
"04:54:58","71.6","66.3","83.1","29.92","341","3.5","9.6","0.00","0.00"
"04:59:59","71.6","66.4","83.7","29.92","320","1.7","6","0.00","0.00"
"05:04:59","71.4","66.3","83.8","29.92","348","1.1","3.6","0.00","0.00"
"05:09:59","71.3","65.9","83.2","29.92","347","1","3.6","0.00","0.00"
"05:14:56","71.1","66","83.9","29.93","347","0.6","4.8","0.00","0.00"
"05:19:57","71","65.9","84","29.93","347","0.8","4.6","0.00","0.00"
"05:24:56","70.7","65.6","84","29.93","347","0.3","2.4","0.00","0.00"
"05:29:57","70.4","65.4","84.3","29.94","347","1.1","3.6","0.00","0.00"
"05:34:57","70","65.5","85.5","29.94","347","1.1","3.6","0.00","0.00"
"05:39:58","69.7","65","85","29.94","346","1.2","3.6","0.00","0.00"
"05:44:56","69.5","64.8","85","29.95","346","0.9","3.6","0.00","0.00"
"05:49:56","69.3","64.6","85","29.95","347","1.3","3.6","0.00","0.00"
"05:54:57","69.2","64.5","85","29.95","348","0.9","3.6","0.00","0.00"
"05:59:58","69","64.3","85","29.96","348","0.3","2.4","0.00","0.00"
"06:04:59","68.9","64.3","85.2","29.96","348","0.1","1.2","0.00","0.00"
"06:09:56","68.8","64.7","86.7","29.96","348","0.3","1.2","0.00","0.00"
"06:14:58","68.6","64.6","87","29.96","348","0","1.2","0.00","0.00"
"06:19:59","68.5","64.2","86.3","29.96","348","0.2","2.4","0.00","0.00"
"06:24:56","68.4","64","86","29.96","348","0","0","0.00","0.00"
"06:29:57","68.3","63.9","85.8","29.97","319","0","0","0.00","0.00"
"06:34:58","68.3","63.9","86","29.97","319","0.1","1.2","0.00","0.00"
"06:39:59","68.2","64.1","86.9","29.97","317","0","1.2","0.00","0.00"
"06:44:56","68","64","86.9","29.98","317","0.1","1.2","0.00","0.00"
"06:49:56","67.9","63.8","86.7","29.98","317","0","0","0.00","0.00"
"06:54:56","67.8","63.8","87","29.98","317","0","0","0.00","0.00"
"06:59:57","67.7","63.7","87","29.99","317","0","0","0.00","0.00"
"07:04:58","67.7","63.6","86.5","29.99","317","0","0","0.00","0.00"
"07:09:58","67.8","63.6","86.3","29.99","317","0.4","3.6","0.00","0.00"
"07:14:59","68.1","63.4","84.8","30.00","318","1.1","3.6","0.00","0.00"
"07:19:59","68.8","63.4","83.1","30.00","317","1.2","4.8","0.00","0.00"
"07:24:59","69.5","63.6","81.5","30.00","347","2","4.8","0.00","0.00"
"07:29:59","70.2","63.9","80.5","30.00","360","0.9","4.6","0.00","0.00"
"07:34:59","70.9","64","78.7","30.00","356","1.4","4.8","0.00","0.00"
"07:39:58","71.6","63.8","76.7","30.00","349","1.1","4.8","0.00","0.00"
"07:44:58","72","63.8","75.7","30.00","352","2.2","6","0.00","0.00"
"07:49:58","71.9","63.6","75.3","30.00","350","2.6","8.4","0.00","0.00"
"07:54:56","71.9","63.5","75.1","30.00","355","1.8","4.8","0.00","0.00"
"07:59:56","71.9","63.5","75","30.00","329","2","4.8","0.00","0.00"
"08:04:56","71.9","63.6","75.1","30.00","337","1.7","6","0.00","0.00"
"08:09:59","72.2","63.8","75.2","30.00","325","1","4.8","0.00","0.00"
"08:14:56","72.5","63.7","74.2","30.00","343","1.1","6","0.00","0.00"
"08:19:59","72.7","63.9","74.1","30.00","342","1.7","6","0.00","0.00"
"08:24:58","73","64","73.5","30.00","349","2","6","0.00","0.00"
"08:29:58","73.3","64.2","73.2","30.01","328","2.1","6","0.00","0.00"
"08:34:57","73.8","64.3","72.2","30.01","336","1.8","6","0.00","0.00"
"08:39:56","74.1","63.7","70.1","30.01","342","3.2","8.4","0.00","0.00"
"08:44:56","74.2","63.3","68.8","30.01","340","4","10.8","0.00","0.00"
"08:49:59","74.3","63.1","68.2","30.01","334","3.6","12","0.00","0.00"
"08:54:57","74.5","63.1","67.6","30.01","338","3.9","12","0.00","0.00"
"08:59:57","74.6","62.8","66.8","30.01","342","4.5","13.2","0.00","0.00"
"09:04:56","74.8","63.2","67.3","30.01","354","3.8","9.6","0.00","0.00"
"09:09:56","75","62.7","65.7","30.01","335","3","9.2","0.00","0.00"
"09:14:56","75.3","62.7","65","30.01","330","5.6","13.2","0.00","0.00"
"09:19:56","75.2","62.5","64.8","30.01","338","4.3","13.2","0.00","0.00"
"09:24:59","75.4","63.7","66.8","30.01","270","1.2","4.6","0.00","0.00"
"09:29:58","75.9","62.6","63.5","30.01","324","3.6","10.8","0.00","0.00"
"09:34:57","76","62.1","62.2","30.01","338","4.7","13.2","0.00","0.00"
"09:39:57","76","62","62","30.01","352","3.3","9.6","0.00","0.00"
"09:44:57","76.2","62.6","62.9","30.01","347","3","10.8","0.00","0.00"
"09:49:56","76.5","62.6","62.1","30.01","345","3.9","13.2","0.00","0.00"
"09:54:58","76.8","62.3","61.1","30.01","318","2.2","6","0.00","0.00"
"09:59:58","77.1","62.6","61","30.01","342","3.2","8.4","0.00","0.00"
"10:04:58","77.5","62.7","60.4","30.01","344","3.1","8.4","0.00","0.00"
"10:09:57","77.7","62.5","59.6","30.01","350","4","10.8","0.00","0.00"
"10:14:57","77.9","62.5","59.2","30.02","342","3.2","7.2","0.00","0.00"
"10:19:56","78.1","62","58","30.02","344","4","9.6","0.00","0.00"
"10:24:58","77.9","61.5","57.3","30.02","345","5.5","17.3","0.00","0.00"
"10:29:58","77.6","61.3","57.2","30.02","331","4.9","10.8","0.00","0.00"
"10:34:57","77.6","61.5","57.6","30.02","344","5.1","16.8","0.00","0.00"
"10:39:59","77.8","62.1","58.5","30.02","350","5.8","16.1","0.00","0.00"
"10:44:58","78.2","62.8","59.1","30.02","333","1.8","8.4","0.00","0.00"
"10:49:57","78.6","62.3","57.5","30.02","326","3.7","10.8","0.00","0.00"
"10:54:56","78.5","62","56.9","30.02","334","4","8.4","0.00","0.00"
"10:59:56","78.7","63.5","59.8","30.02","336","1.4","6.9","0.00","0.00"
"11:04:58","79.2","63.1","57.9","30.02","346","2.2","7.2","0.00","0.00"
"11:09:59","79.4","63.3","58","30.02","353","2.9","12","0.00","0.00"
"11:14:56","79.2","63.1","57.8","30.02","330","4","10.8","0.00","0.00"
"11:19:57","79.4","63.5","58.4","30.02","356","1.8","6","0.00","0.00"
"11:24:57","79.6","63.3","57.7","30.02","336","3.4","15","0.00","0.00"
"11:29:58","79.4","63.1","57.7","30.02","313","2.9","13.2","0.00","0.00"
"11:34:58","80","63.1","56.5","30.02","346","5.1","13.2","0.00","0.00"
"11:39:59","79.9","62.6","55.5","30.02","322","2.7","7.2","0.00","0.00"
"11:44:56","80.3","62.3","54.3","30.02","342","4.1","9.6","0.00","0.00"
"11:49:56","79.9","61.6","53.8","30.01","329","4.7","10.8","0.00","0.00"
"11:54:56","80.1","62.7","55.5","30.01","335","3.5","12","0.00","0.00"
"11:59:57","80.7","62.7","54.4","30.01","332","3.5","10.8","0.00","0.00"
"12:04:58","80.9","62.8","54.1","30.01","337","4.1","10.8","0.00","0.00"
"12:09:59","81.1","64","56.1","30.01","336","2.8","9.6","0.00","0.00"
"12:14:57","81.3","63.6","55.1","30.01","311","3.1","9.6","0.00","0.00"
"12:19:58","81.8","64","55","30.01","302","1.7","8.4","0.00","0.00"
"12:24:57","81.9","63.5","53.7","30.01","329","3.7","10.8","0.00","0.00"
"12:29:58","81.8","64","54.8","30.01","267","1.8","6","0.00","0.00"
"12:34:58","82.1","64.2","54.9","30.00","236","2.8","12","0.00","0.00"
"12:39:59","82.6","63","51.7","30.00","318","2.9","11.5","0.00","0.00"
"12:44:59","82.7","64.3","54","30.00","306","1.5","6.9","0.00","0.00"
"12:49:56","83.1","63.1","51.1","30.00","352","3","12","0.00","0.00"
"12:54:56","82.6","63.3","52.2","30.00","30","2.1","6","0.00","0.00"
"12:59:56","82.5","63.9","53.5","30.00","321","2.9","10.8","0.00","0.00"
"13:04:57","83","64.6","53.8","29.99","304","3.4","12","0.00","0.00"
"13:09:58","82.9","64.5","53.9","29.99","326","3.5","8.4","0.00","0.00"
"13:14:56","83","64.8","54.3","29.99","308","4.9","15","0.00","0.00"
"13:19:56","82.3","64.3","54.5","29.99","277","4.3","12.7","0.00","0.00"
"13:24:58","82.4","64.4","54.6","29.99","255","3.5","9.6","0.00","0.00"
"13:29:56","82.9","63","51.2","29.99","312","4.8","12","0.00","0.00"
"13:34:56","82.8","63.6","52.5","29.99","332","5.2","15","0.00","0.00"
"13:39:57","82.3","63.6","53.2","29.99","357","2.9","8.4","0.00","0.00"
"13:44:57","82.2","63.3","52.9","29.99","340","2.9","9.6","0.00","0.00"
"13:49:58","83.1","63.4","51.5","29.99","5","4","15","0.00","0.00"
"13:54:58","83.8","64","51.5","29.99","346","3.9","13.2","0.00","0.00"
"13:59:58","83.9","64.3","51.7","29.99","345","4.8","13.2","0.00","0.00"
"14:04:59","83.4","62.6","49.6","29.98","293","2.6","8.4","0.00","0.00"
"14:09:56","83.5","63.6","51.3","29.98","303","2.2","6","0.00","0.00"
"14:14:58","84","62.7","48.9","29.98","321","4.4","13.2","0.00","0.00"
"14:19:58","83.8","62.3","48.6","29.97","322","5","12","0.00","0.00"
"14:24:58","84","63.7","50.5","29.97","313","2.9","10.8","0.00","0.00"
"14:29:58","83.9","62.7","49","29.97","305","2.2","6.9","0.00","0.00"
"14:34:58","84.3","62.5","48","29.97","341","4.9","15","0.00","0.00"
"14:39:59","84.6","62.6","47.8","29.97","220","2.8","9.6","0.00","0.00"
"14:44:59","85","63.5","48.7","29.97","253","3.8","10.8","0.00","0.00"
"14:49:56","85.6","64.4","49.2","29.97","335","3.1","6","0.00","0.00"
"14:54:57","85.6","63.2","47.2","29.97","330","2.7","7.2","0.00","0.00"
"14:59:57","86","63.5","47.2","29.97","268","3.6","10.8","0.00","0.00"
"15:04:58","85.4","63.6","48.1","29.96","331","3.8","9.6","0.00","0.00"
"15:09:58","85.3","63.7","48.6","29.96","333","5.2","12","0.00","0.00"
"15:14:59","85.2","63.9","49.2","29.96","236","2.6","10.4","0.00","0.00"
"15:19:56","85.6","63.5","47.7","29.96","327","3.3","8.4","0.00","0.00"
"15:24:59","84.8","63.6","49.1","29.96","344","3.6","9.6","0.00","0.00"
"15:29:56","84.4","62.2","47.5","29.96","343","3.4","9.2","0.00","0.00"
"15:34:58","84.4","64.6","51.5","29.96","310","2.2","7.2","0.00","0.00"
"15:39:56","85.4","65.2","51","29.96","336","2.7","9.6","0.00","0.00"
"15:44:57","85.8","64.5","49.1","29.96","325","4.4","10.8","0.00","0.00"
"15:49:58","85.1","64.3","49.9","29.95","193","2.4","6","0.00","0.00"
"15:54:58","85.3","64.9","50.7","29.95","186","2.9","7.2","0.00","0.00"
"15:59:59","85.7","64.4","49.1","29.95","339","5.3","17.3","0.00","0.00"
"16:04:56","85.8","63.7","47.8","29.95","303","3.4","10.4","0.00","0.00"
"16:09:57","86","63.8","47.8","29.95","296","4.4","10.8","0.00","0.00"
"16:14:59","86.1","64.3","48.2","29.95","287","2.9","9.2","0.00","0.00"
"16:19:56","86.8","64.8","48","29.94","238","2.7","6","0.00","0.00"
"16:24:57","87.6","64.7","46.7","29.94","262","3","8.4","0.00","0.00"
"16:29:58","87.9","63.3","44.1","29.94","334","4.8","15","0.00","0.00"
"16:34:59","87.6","63.2","44.3","29.93","336","4.4","10.8","0.00","0.00"
"16:39:57","87","63","44.9","29.93","264","3.4","7.2","0.00","0.00"
"16:44:59","86.8","63.6","46.1","29.93","334","2.3","8.4","0.00","0.00"
"16:49:59","86.8","62.7","44.7","29.93","315","4.6","8.4","0.00","0.00"
"16:54:56","86.7","62.8","45","29.93","303","3.3","9.6","0.00","0.00"
"16:59:57","87","63.4","45.5","29.93","332","3.2","8.4","0.00","0.00"
"17:04:58","87.2","63.9","46.1","29.93","326","2.2","7.2","0.00","0.00"
"17:09:59","87.3","63.8","45.8","29.93","339","4.2","13.2","0.00","0.00"
"17:14:57","87.1","63","44.8","29.93","338","3","12.7","0.00","0.00"
"17:19:59","87","63.2","45.2","29.93","355","1.9","10.8","0.00","0.00"
"17:24:56","87","62.8","44.6","29.93","339","3.7","10.8","0.00","0.00"
"17:29:58","87","63.3","45.4","29.93","345","2.9","6.9","0.00","0.00"
"17:34:15","87","62.9","44.6","29.93","320","2.5","8.4","0.00","0.00"
"18:14:59","86.2","62.1","44.6","29.93","310","0.9","2.4","0.00","0.00"
"18:19:59","85.8","62.4","45.7","29.93","333","0.8","6","0.00","0.00"
"18:24:56","85.5","62.3","45.8","29.93","328","2.1","6","0.00","0.00"
"18:29:57","85.3","61.4","44.7","29.93","339","2.8","6","0.00","0.00"
"18:34:58","85.1","61.5","45.3","29.92","340","1.4","4.8","0.00","0.00"
"18:39:59","84.9","62.1","46.4","29.92","334","0.9","6","0.00","0.00"
"18:44:58","84.8","61.1","45","29.92","322","2.4","6","0.00","0.00"
"18:49:58","84.5","60.9","45.2","29.92","344","1.6","5.8","0.00","0.00"
"18:54:56","84.3","60.5","44.8","29.92","344","1.1","3.6","0.00","0.00"
"18:59:56","84.2","61.4","46.3","29.92","342","0.6","2.4","0.00","0.00"
"19:04:58","84","60.9","45.8","29.92","340","1.3","6","0.00","0.00"
"19:09:59","83.8","61.1","46.5","29.92","340","0.6","2.4","0.00","0.00"
"19:14:57","83.6","60.6","46","29.92","333","1.1","6","0.00","0.00"
"19:19:58","83.4","60.5","46.2","29.92","328","1.1","4.8","0.00","0.00"
"19:24:59","83.3","60.9","46.9","29.92","328","0.9","3.6","0.00","0.00"
"19:29:56","83.1","60.9","47.2","29.93","332","2.2","4.8","0.00","0.00"
"19:34:56","82.9","61.1","47.8","29.93","340","1.2","4.8","0.00","0.00"
"19:39:57","82.7","61.1","48.3","29.93","340","1","3.6","0.00","0.00"
"19:44:58","82.4","61.4","49.2","29.93","340","0.6","2.4","0.00","0.00"
"19:49:58","82.1","61.4","49.6","29.93","340","0.5","2.4","0.00","0.00"
"19:54:59","81.9","61.3","49.8","29.93","340","0.2","1.2","0.00","0.00"
"19:59:56","81.5","61.5","50.7","29.94","340","0.1","1.2","0.00","0.00"
"20:04:58","81.1","61.7","51.9","29.94","340","0","1.2","0.00","0.00"
"20:09:59","80.6","61.7","52.7","29.94","340","0","0","0.00","0.00"
"20:14:59","80.1","62.2","54.5","29.94","335","0","0","0.00","0.00"
"20:19:56","79.5","62.3","55.8","29.94","335","0","0","0.00","0.00"
"20:24:57","78.7","61.9","56.4","29.94","242","0","1.2","0.00","0.00"
"20:29:57","78","62.2","58.4","29.94","236","0","1.2","0.00","0.00"
"20:34:57","77.3","62.5","60.3","29.94","236","0.7","1.2","0.00","0.00"
"20:39:58","76.5","62.3","61.5","29.94","236","0.4","1.2","0.00","0.00"
"20:44:59","75.9","61.9","62","29.94","226","0","1.2","0.00","0.00"
"20:49:59","75.4","62.2","63.6","29.94","226","0","0","0.00","0.00"
"20:54:56","75.1","62","63.8","29.94","226","0","0","0.00","0.00"
"20:59:56","74.7","61.5","63.4","29.94","226","0","0","0.00","0.00"
"21:04:57","74.5","61.7","64.4","29.94","226","0","1.2","0.00","0.00"
"21:09:56","74.3","62.1","65.9","29.94","226","0.2","1.2","0.00","0.00"
"21:14:57","74.5","61.9","64.9","29.95","226","0","1.2","0.00","0.00"
"21:19:56","74.7","62.6","66","29.95","226","0","0","0.00","0.00"
"21:24:59","74.6","62.8","66.9","29.95","226","0","0","0.00","0.00"
"21:29:59","74.2","62.9","67.8","29.95","226","0","0","0.00","0.00"
"21:34:56","73.8","62.7","68.1","29.95","226","0","0","0.00","0.00"
"21:39:56","73.4","62.4","68.4","29.95","226","0","0","0.00","0.00"
"21:44:58","73.1","62.2","68.7","29.95","226","0","0","0.00","0.00"
"21:49:58","72.9","62.5","70","29.95","225","0.1","1.2","0.00","0.00"
"21:54:58","72.8","62.5","70.2","29.95","226","0.1","1.2","0.00","0.00"
"21:59:58","72.8","62.6","70.5","29.96","226","0","0","0.00","0.00"
"22:04:59","72.6","62.7","71","29.96","226","0","0","0.00","0.00"
"22:09:58","72.3","62.7","71.7","29.96","226","0","0","0.00","0.00"
"22:14:56","72.1","62.6","72","29.96","226","0","0","0.00","0.00"
"22:19:56","71.9","62.5","72.3","29.95","225","0","0","0.00","0.00"
"22:24:56","71.7","62.8","73.5","29.95","225","0.5","2.4","0.00","0.00"
"22:29:57","71.6","62.9","74","29.96","226","0","1.2","0.00","0.00"
"22:34:57","71.5","62.8","74.1","29.96","226","0","0","0.00","0.00"
"22:39:57","71.2","62.9","75","29.96","226","0","0","0.00","0.00"
"22:44:59","70.7","62.5","75.2","29.96","226","0","0","0.00","0.00"
"22:49:59","70.4","62.6","76.6","29.96","226","0","0","0.00","0.00"
"22:54:59","70.3","62.7","77.2","29.96","226","0.2","1.2","0.00","0.00"
"22:59:59","70.4","62.6","76.3","29.96","225","0.5","1.2","0.00","0.00"
"23:04:56","70.4","62.6","76.5","29.96","226","0","0","0.00","0.00"
"23:09:55","70.3","62.7","77","29.96","226","0","0","0.00","0.00"
"23:14:58","70","62.7","77.4","29.96","226","0","0","0.00","0.00"
"23:19:58","69.8","62.6","78.1","29.95","226","0","0","0.00","0.00"
"23:24:58","69.4","62.7","79","29.95","226","0.1","1.2","0.00","0.00"
"23:29:59","69.2","62.4","78.8","29.95","225","0.5","2.4","0.00","0.00"
"23:34:59","69.3","62.7","79.5","29.95","225","0.9","2.4","0.00","0.00"
"23:39:56","69.4","63","80","29.95","226","0.5","2.4","0.00","0.00"
"23:44:57","69.4","62.6","79.1","29.95","226","0","0","0.00","0.00"
